| time (UTC) | temp F | wind direction | speed MPH | gust MPH | rain 1hr in | rain 24hr in | rain mn in | humidity % | barometer mb |
| 20260504020508 | 48 | 292 | 0.0 | 0.0 | 0.00 | 0.00 | 0.00 | 61 | 1015.4 |
| 20260504020009 | 48 | 292 | 0.0 | 0.0 | 0.00 | 0.00 | 0.00 | 60 | 1015.3 |
| 20260504015008 | 49 | 292 | 0.0 | 0.0 | 0.00 | 0.00 | 0.00 | 59 | 1015.3 |
| 20260504014508 | 49 | 292 | 0.0 | 0.0 | 0.00 | 0.00 | 0.00 | 58 | 1015.3 |
| 20260504013508 | 50 | 292 | 0.0 | 0.0 | 0.00 | 0.00 | 0.00 | 56 | 1015.3 |
| 20260504013009 | 50 | 292 | 0.0 | 0.0 | 0.00 | 0.00 | 0.00 | 55 | 1015.2 |
| 20260504012509 | 50 | 292 | 0.0 | 0.0 | 0.00 | 0.00 | 0.00 | 55 | 1015.1 |
| 20260504012008 | 51 | 292 | 0.0 | 0.0 | 0.00 | 0.00 | 0.00 | 55 | 1015.0 |
| 20260504011507 | 51 | 292 | 0.0 | 0.0 | 0.00 | 0.00 | 0.00 | 55 | 1014.9 |
| 20260504011011 | 51 | 292 | 0.0 | 0.0 | 0.00 | 0.00 | 0.00 | 54 | 1014.7 |
| 20260504010508 | 52 | 292 | 0.0 | 0.0 | 0.00 | 0.00 | 0.00 | 54 | 1014.7 |
| 20260504010010 | 52 | 292 | 0.0 | 0.0 | 0.00 | 0.00 | 0.00 | 53 | 1014.7 |
| 20260504005509 | 52 | 292 | 0.0 | 0.0 | 0.00 | 0.00 | 0.00 | 54 | 1014.5 |
| 20260504005008 | 52 | 292 | 0.0 | 0.0 | 0.00 | 0.00 | 0.00 | 53 | 1014.5 |
| 20260504004507 | 52 | 292 | 0.0 | 0.0 | 0.00 | 0.00 | 0.00 | 52 | 1014.5 |
| 20260504004010 | 52 | 292 | 0.0 | 0.0 | 0.00 | 0.00 | 0.00 | 52 | 1014.4 |
| 20260504003507 | 52 | 292 | 0.0 | 0.0 | 0.00 | 0.00 | 0.00 | 52 | 1014.5 |
| 20260504003010 | 52 | 292 | 0.0 | 0.0 | 0.00 | 0.00 | 0.00 | 50 | 1014.3 |
| 20260504002510 | 52 | 292 | 0.0 | 0.0 | 0.00 | 0.00 | 0.00 | 51 | 1014.2 |
| 20260504002008 | 53 | 292 | 0.0 | 0.0 | 0.00 | 0.00 | 0.00 | 49 | 1014.1 |
| 20260504001508 | 53 | 292 | 0.0 | 0.0 | 0.00 | 0.00 | 0.00 | 49 | 1014.0 |
| 20260504001010 | 54 | 292 | 0.0 | 2.0 | 0.00 | 0.00 | 0.00 | 48 | 1014.0 |
| 20260504000508 | 54 | 292 | 0.0 | 2.0 | 0.00 | 0.00 | 0.00 | 47 | 1014.0 |
| 20260504000010 | 54 | 292 | 0.0 | 1.0 | 0.00 | 0.00 | 0.00 | 45 | 1014.1 |
| 20260503235509 | 55 | 292 | 0.0 | 0.0 | 0.00 | 0.00 | 0.00 | 45 | 1014.0 |
| 20260503235009 | 56 | 292 | 0.0 | 2.0 | 0.00 | 0.00 | 0.00 | 43 | 1014.0 |
| 20260503233507 | 57 | 329 | 2.0 | 4.0 | 0.00 | 0.00 | 0.00 | 41 | 1013.9 |
| 20260503233009 | 57 | 313 | 2.0 | 4.0 | 0.00 | 0.00 | 0.00 | 41 | 1013.9 |
| 20260503232509 | 57 | 292 | 1.0 | 4.0 | 0.00 | 0.00 | 0.00 | 42 | 1013.9 |
| 20260503232008 | 58 | 292 | 1.0 | 8.0 | 0.00 | 0.00 | 0.00 | 40 | 1013.7 |
| 20260503231509 | 58 | 294 | 2.0 | 10.0 | 0.00 | 0.00 | 0.00 | 40 | 1013.8 |
| 20260503231008 | 58 | 320 | 4.0 | 10.0 | 0.00 | 0.00 | 0.00 | 38 | 1013.7 |
| 20260503230507 | 58 | 348 | 3.0 | 9.0 | 0.00 | 0.00 | 0.00 | 38 | 1013.8 |
| 20260503225507 | 58 | 322 | 1.0 | 11.0 | 0.00 | 0.00 | 0.00 | 39 | 1013.7 |
| 20260503225008 | 58 | 301 | 2.0 | 9.0 | 0.00 | 0.00 | 0.00 | 39 | 1013.7 |
| 20260503224509 | 59 | 333 | 2.0 | 10.0 | 0.00 | 0.00 | 0.00 | 40 | 1013.7 |
| 20260503224008 | 59 | 282 | 4.0 | 10.0 | 0.00 | 0.00 | 0.00 | 37 | 1013.7 |
| 20260503223507 | 59 | 300 | 2.0 | 8.0 | 0.00 | 0.00 | 0.00 | 40 | 1013.6 |
| 20260503222508 | 59 | 257 | 2.0 | 8.0 | 0.00 | 0.00 | 0.00 | 38 | 1013.6 |
| 20260503222008 | 59 | 281 | 3.0 | 9.0 | 0.00 | 0.00 | 0.00 | 37 | 1013.6 |
| 20260503221510 | 59 | 275 | 3.0 | 10.0 | 0.00 | 0.00 | 0.00 | 38 | 1013.6 |
| 20260503221008 | 60 | 335 | 3.0 | 8.0 | 0.00 | 0.00 | 0.00 | 38 | 1013.5 |
| 20260503220507 | 60 | 349 | 3.0 | 8.0 | 0.00 | 0.00 | 0.00 | 38 | 1013.6 |
| 20260503220011 | 60 | 300 | 154.0 | 655.0 | 7.36 | 0.00 | 0.00 | 37 | |
| 20260503215508 | 60 | 315 | 5.0 | 14.0 | 0.00 | 0.00 | 0.00 | 36 | 1013.5 |
| 20260503214508 | 60 | 295 | 5.0 | 14.0 | 0.00 | 0.00 | 0.00 | 37 | 1013.6 |
| 20260503214010 | 60 | 275 | 2.0 | 16.0 | 0.00 | 0.00 | 0.00 | 37 | 1013.5 |
| 20260503212508 | 60 | 343 | 3.0 | 15.0 | 0.00 | 0.00 | 0.00 | 37 | 1013.6 |
| 20260503212011 | 60 | 312 | 5.0 | 15.0 | 0.00 | 0.00 | 0.00 | 37 | 1013.4 |
| 20260503211508 | 60 | 309 | 1.0 | 12.0 | 0.00 | 0.00 | 0.00 | 38 | 1013.6 |
| 20260503211010 | 59 | 321 | 2.0 | 9.0 | 0.00 | 0.00 | 0.00 | 38 | 1013.6 |
| 20260503210508 | 60 | 325 | 5.0 | 9.0 | 0.00 | 0.00 | 0.00 | 36 | 1013.7 |
| 20260503210009 | 60 | 279 | 3.0 | 8.0 | 0.00 | 0.00 | 0.00 | 41 | 1013.5 |
| 20260503205508 | 61 | 334 | 2.0 | 10.0 | 0.00 | 0.00 | 0.00 | 38 | 1013.6 |
| 20260503205009 | 60 | 319 | 3.0 | 15.0 | 0.00 | 0.00 | 0.00 | 40 | 1013.6 |
| 20260503204508 | 60 | 240 | 3.0 | 15.0 | 0.00 | 0.00 | 0.00 | 41 | 1013.6 |
| 20260503204009 | 59 | 316 | 5.0 | 15.0 | 0.00 | 0.00 | 0.00 | 39 | 1013.7 |
| 20260503203508 | 60 | 308 | 5.0 | 14.0 | 0.00 | 0.00 | 0.00 | 37 | 1013.7 |
| 20260503203010 | 60 | 40 | 4.0 | 14.0 | 0.00 | 0.00 | 0.00 | 39 | 1013.7 |
| 20260503202508 | 59 | 315 | 5.0 | 12.0 | 0.00 | 0.00 | 0.00 | 41 | 1013.7 |
| 20260503201011 | 59 | 328 | 5.0 | 15.0 | 0.00 | 0.00 | 0.00 | 38 | 1013.9 |
| 20260503200507 | 59 | 313 | 4.0 | 12.0 | 0.00 | 0.00 | 0.00 | 38 | 1013.8 |
| 20260503195507 | 58 | 355 | 5.0 | 15.0 | 0.00 | 0.00 | 0.00 | 40 | 1013.8 |
| 20260503195007 | 58 | 310 | 5.0 | 15.0 | 0.00 | 0.00 | 0.00 | 40 | 1014.0 |
| 20260503194508 | 58 | 315 | 6.0 | 19.0 | 0.00 | 0.00 | 0.00 | 38 | 1014.0 |
| 20260503194007 | 58 | 5 | 7.0 | 19.0 | 0.00 | 0.00 | 0.00 | 39 | 1014.1 |
| 20260503193507 | 57 | 326 | 4.0 | 16.0 | 0.00 | 0.00 | 0.00 | 39 | 1014.1 |
| 20260503193009 | 58 | 317 | 9.0 | 16.0 | 0.00 | 0.00 | 0.00 | 38 | 1014.1 |
| 20260503192008 | 59 | 209 | 4.0 | 14.0 | 0.00 | 0.00 | 0.00 | 39 | 1014.1 |
| 20260503191507 | 59 | 288 | 7.0 | 14.0 | 0.00 | 0.00 | 0.00 | 38 | 1014.2 |
| 20260503191011 | 59 | 308 | 4.0 | 20.0 | 0.00 | 0.00 | 0.00 | 40 | 1014.4 |
| 20260503190507 | 58 | 294 | 5.0 | 20.0 | 0.00 | 0.00 | 0.00 | 40 | 1014.3 |
| 20260503190009 | 59 | 319 | 8.0 | 13.0 | 0.00 | 0.00 | 0.00 | 37 | 1014.2 |
| 20260503185507 | 59 | 299 | 5.0 | 12.0 | 0.00 | 0.00 | 0.00 | 41 | 1014.3 |
| 20260503184507 | 57 | 340 | 9.0 | 17.0 | 0.00 | 0.00 | 0.00 | 39 | 1014.5 |
| 20260503184010 | 57 | 348 | 9.0 | 17.0 | 0.00 | 0.00 | 0.00 | 39 | 1014.5 |
| 20260503183507 | 58 | 355 | 8.0 | 17.0 | 0.00 | 0.00 | 0.00 | 37 | 1014.4 |
| 20260503183008 | 59 | 25 | 5.0 | 13.0 | 0.00 | 0.00 | 0.00 | 38 | 1014.5 |
| 20260503182008 | 58 | 216 | 4.0 | 15.0 | 0.00 | 0.00 | 0.00 | 42 | 1014.5 |
| 20260503181507 | 58 | 348 | 6.0 | 15.0 | 0.00 | 0.00 | 0.00 | 40 | 1014.6 |
| 20260503181009 | 57 | 15 | 4.0 | 19.0 | 0.00 | 0.00 | 0.00 | 40 | 1014.7 |
| 20260503180507 | 57 | 269 | 3.0 | 19.0 | 0.00 | 0.00 | 0.00 | 43 | 1014.6 |
| 20260503175508 | 57 | 328 | 6.0 | 15.0 | 0.00 | 0.00 | 0.00 | 41 | 1014.5 |
| 20260503175007 | 56 | 80 | 5.0 | 15.0 | 0.00 | 0.00 | 0.00 | 41 | 1014.6 |
| 20260503174507 | 57 | 329 | 6.0 | 13.0 | 0.00 | 0.00 | 0.00 | 43 | 1014.7 |
| 20260503173507 | 56 | 28 | 4.0 | 13.0 | 0.00 | 0.00 | 0.00 | 43 | 1014.9 |
| 20260503172007 | 55 | 57 | 7.0 | 12.0 | 0.00 | 0.00 | 0.00 | 41 | 1014.9 |
| 20260503171507 | 55 | 320 | 5.0 | 12.0 | 0.00 | 0.00 | 0.00 | 44 | 1014.9 |
| 20260503171009 | 57 | 209 | 4.0 | 12.0 | 0.00 | 0.00 | 0.00 | 47 | 1014.9 |
| 20260503170506 | 57 | 299 | 4.0 | 13.0 | 0.00 | 0.00 | 0.00 | 41 | 1014.8 |
| 20260503151008 | 53 | 327 | 4.0 | 17.0 | 0.00 | 0.00 | 0.00 | 51 | 1015.4 |
| 20260503150506 | 51 | 78 | 4.0 | 17.0 | 0.00 | 0.00 | 0.00 | 54 | 1015.6 |
| 20260503131009 | 48 | 333 | 4.0 | 14.0 | 0.00 | 0.00 | 0.00 | 60 | 1015.5 |
| 20260503130507 | 47 | 344 | 4.0 | 14.0 | 0.00 | 0.00 | 0.00 | 59 | 1015.3 |
| 20260503110506 | 44 | 344 | 1.0 | 5.0 | 0.00 | 0.00 | 0.00 | 74 | 1014.4 |
| 20260503090506 | 43 | 264 | 0.0 | 4.0 | 0.00 | 0.00 | 0.00 | 78 | 1013.2 |
| 20260503081507 | 41 | 306 | 0.0 | 5.0 | 0.00 | 0.00 | 0.00 | 79 | 1012.8 |
| 20260503081008 | 42 | 307 | 1.0 | 5.0 | 0.00 | 0.00 | 0.00 | 78 | 1012.7 |
| 20260503080506 | 42 | 344 | 1.0 | 4.0 | 0.00 | 0.00 | 0.00 | 78 | 1012.6 |
| 20260503072507 | 44 | 323 | 0.0 | 0.0 | 0.00 | 0.00 | 0.00 | 72 | 1012.2 |
| 20260503072007 | 44 | 323 | 0.0 | 0.0 | 0.00 | 0.00 | 0.00 | 72 | 1012.2 |
| 20260503071508 | 44 | 323 | 0.0 | 0.0 | 0.00 | 0.00 | 0.00 | 72 | 1012.3 |
| 20260503071008 | 44 | 323 | 0.0 | 0.0 | 0.00 | 0.00 | 0.00 | 71 | 1012.3 |
| 20260503055010 | 47 | 23 | 0.0 | 2.0 | 0.00 | 0.00 | 0.00 | 67 | 1012.5 |
| 20260503054508 | 48 | 301 | 0.0 | 3.0 | 0.00 | 0.00 | 0.00 | 67 | 1012.5 |
| 20260503054008 | 48 | 296 | 0.0 | 5.0 | 0.00 | 0.00 | 0.00 | 67 | 1012.5 |
| 20260503053509 | 48 | 329 | 1.0 | 9.0 | 0.00 | 0.00 | 0.00 | 66 | 1012.5 |
| 20260503053008 | 48 | 279 | 4.0 | 9.0 | 0.00 | 0.00 | 0.00 | 65 | 1012.4 |
| 20260503052507 | 48 | 286 | 2.0 | 6.0 | 0.00 | 0.00 | 0.00 | 65 | 1012.3 |
| 20260503052009 | 48 | 284 | 1.0 | 6.0 | 0.00 | 0.00 | 0.00 | 65 | 1012.5 |
| 20260503051008 | 48 | 312 | 1.0 | 6.0 | 0.00 | 0.00 | 0.00 | 65 | 1012.8 |
| 20260503050510 | 49 | 335 | 3.0 | 6.0 | 0.00 | 0.00 | 0.00 | 64 | 1012.7 |
| 20260503050009 | 49 | 334 | 2.0 | 8.0 | 0.00 | 0.00 | 0.00 | 64 | 1012.8 |
| 20260503045507 | 49 | 304 | 3.0 | 8.0 | 0.00 | 0.00 | 0.00 | 64 | 1012.8 |
| 20260503045009 | 49 | 303 | 1.0 | 5.0 | 0.00 | 0.00 | 0.00 | 63 | 1013.0 |
| 20260503044507 | 49 | 303 | 1.0 | 5.0 | 0.00 | 0.00 | 0.00 | 63 | 1013.0 |
| 20260503044010 | 49 | 311 | 2.0 | 5.0 | 0.00 | 0.00 | 0.00 | 63 | 1013.1 |
| 20260503043509 | 49 | 284 | 1.0 | 3.0 | 0.00 | 0.00 | 0.00 | 62 | 1013.1 |
| 20260503042508 | 49 | 302 | 3.0 | 6.0 | 0.00 | 0.00 | 0.00 | 61 | 1013.2 |
| 20260503042010 | 49 | 312 | 1.0 | 5.0 | 0.00 | 0.00 | 0.00 | 61 | 1013.3 |
| 20260503041507 | 49 | 298 | 3.0 | 5.0 | 0.00 | 0.00 | 0.00 | 61 | 1013.3 |
| 20260503041008 | 50 | 284 | 1.0 | 5.0 | 0.00 | 0.00 | 0.00 | 60 | 1013.3 |
| 20260503040509 | 50 | 284 | 1.0 | 6.0 | 0.00 | 0.00 | 0.00 | 60 | 1013.4 |
| 20260503040010 | 50 | 317 | 3.0 | 6.0 | 0.00 | 0.00 | 0.00 | 60 | 1013.4 |
| 20260503035508 | 50 | 316 | 1.0 | 4.0 | 0.00 | 0.00 | 0.00 | 59 | 1013.4 |
| 20260503035010 | 50 | 292 | 0.0 | 4.0 | 0.00 | 0.00 | 0.00 | 59 | 1013.4 |
| 20260503034008 | 50 | 297 | 1.0 | 6.0 | 0.00 | 0.00 | 0.00 | 58 | 1013.4 |
| 20260503033509 | 50 | 332 | 2.0 | 6.0 | 0.00 | 0.00 | 0.00 | 58 | 1013.5 |
| 20260503033009 | 50 | 292 | 2.0 | 6.0 | 0.00 | 0.00 | 0.00 | 58 | 1013.3 |
| 20260503032508 | 50 | 295 | 0.0 | 7.0 | 0.00 | 0.00 | 0.00 | 58 | 1013.4 |
| 20260503032010 | 50 | 295 | 0.0 | 5.0 | 0.00 | 0.00 | 0.00 | 57 | 1013.3 |
| 20260503031508 | 50 | 292 | 1.0 | 6.0 | 0.00 | 0.00 | 0.00 | 57 | 1013.3 |
| 20260503031008 | 50 | 299 | 2.0 | 4.0 | 0.00 | 0.00 | 0.00 | 57 | 1013.3 |
| 20260503030509 | 50 | 288 | 1.0 | 4.0 | 0.00 | 0.00 | 0.00 | 57 | 1013.2 |
| 20260503030009 | 50 | 265 | 2.0 | 5.0 | 0.00 | 0.00 | 0.00 | 57 | 1013.2 |
| 20260503025507 | 50 | 318 | 2.0 | 5.0 | 0.00 | 0.00 | 0.00 | 56 | 1013.1 |
| 20260503024507 | 50 | 303 | 1.0 | 4.0 | 0.00 | 0.00 | 0.00 | 56 | 1013.3 |
| 20260503024010 | 51 | 330 | 2.0 | 4.0 | 0.00 | 0.00 | 0.00 | 55 | 1013.1 |
| 20260503023009 | 51 | 297 | 1.0 | 3.0 | 0.00 | 0.00 | 0.00 | 55 | 1013.1 |
| 20260503022509 | 51 | 237 | 1.0 | 3.0 | 0.00 | 0.00 | 0.00 | 54 | 1013.1 |